Tracking 20715 objects as of 27-May-2020
HD Live streaming from Space Station
objects crossing your sky now

IRIDIUM 33 DEB

Track IRIDIUM 33 DEB now!
10-day predictions


NORAD ID: 38470
Int'l Code: 1997-051ZX
Perigee: 695.5 km
Apogee: 844.7 km
Inclination: 86.5 °
Period: 100.1 minutes
Semi major axis: 7141 km
RCS: 0.0067 m2 (small)
Launch date: September 14, 1997
Source: United States (US)
Launch site: TYURATAM MISSILE AND SPACE COMPLEX (TTMTR)

Note: This is SATELLITE DEBRIS
aabbcc
Your satellite tracking list
Your tracking list is empty




NASA's NSSDC Master Catalog

Two Line Element Set (TLE):
1 38470U 97051ZX  20143.08712384  .00002284  00000-0  69356-3 0  9995
2 38470  86.4904 280.1579 0104514 202.6168 157.0409 14.38651880579154
Source of the keplerian elements: AFSPC